User: anonymous   Login
Location: Caltech
(34.1382°N, 118.1253°W)
Time: 22:22:33
(UTC-08:00)
Language:

Saudisat 1A - Orbit

View from above orbital plane
View from above orbital plane
View from above satellite
View from above satellite

Ground track
Ground track

The orbit data is extracted from the following two-line orbital elements,

1 26546U 00057B   15024.75553802  .00001251  00000-0  14869-3 0  4986
2 26546 064.5551 190.0239 0017042 326.3694 033.6331 14.88935882776377
Epoch (UTC): 24 January 2015 18:07:58
Eccentricity: 0.0017042
inclination: 64.5551°
perigee height: 589 km
apogee height: 613 km
right ascension of ascending node: 190.0239°
argument of perigee: 326.3694°
revolutions per day: 14.88935882
mean anomaly at epoch: 33.6331°
orbit number at epoch: 77637

The dashed part of the orbit path shows where the satellite is in the earth's shadow,  

DLR